Location: Home
(42.5358°N, 72.7383°W)
Time: 02:24:32
(UTC-04:00)

IRIDIUM 152 - Pass Details

Date: 08 July 2022
Orbit: 776 x 779 km, 86.4° (Epoch: 10 August)

Event Time Altitude Azimuth Distance (km) Brightness Sun altitude
Exits shadow 03:02:31 - 147° (SSE) 2,624 ? -18.8°
Reaches altitude 10° 03:03:22 10° 143° (SE) 2,326 ? -18.7°
Maximum altitude 03:07:51 30° 83° (E) 1,371 ? -18.2°
Drops below altitude 10° 03:12:22 10° 24° (NNE) 2,340 ? -17.8°
Sets 03:14:57 0° 14° (NNE) 3,272 ? -17.5°
